Weather History for Weslaco, TX

Change the Weather History Date:

Wednesday, February 6, 2013

  Actual Average (KMFE) Record (KMFE)
Temperature  
Mean Temperature 76 °F 63 °F  
Max Temperature 87 °F 74 °F 88 °F (1950)
Min Temperature 66 °F 53 °F 30 °F (1926)
Degree Days  
Heating Degree Days 0 5  
Month to date heating degree days 30  
Since 1 July heating degree days 457  
Cooling Degree Days 12 3  
Month to date cooling degree days 16  
Year to date cooling degree days 78  
Growing Degree Days 26 (Base 50)    
Moisture  
Dew Point 65 °F    
Average Humidity 72    
Maximum Humidity 87    
Minimum Humidity 44    
Precipitation  
Precipitation 0.00 in 0.04 in 0.56 in (1965)
Month to date precipitation 0.27  
Year to date precipitation 1.32  
Sea Level Pressure  
Sea Level Pressure 29.86 in    
Wind  
Wind Speed 9 mph (SE)    
Max Wind Speed 16 mph    
Max Gust Speed 22 mph    
Visibility 9 miles    
Events      
T = Trace of Precipitation, MM = Missing Value Source: NWS Daily Summary

Daily Weather History Graph

Daily Weather History Graph

Search for Another Location

Airport:

Trip Planner

Search our weather history database for the weather conditions in past years. The results will help you decide how hot, cold, wet, or windy it might be!

Date:

Astronomy

Feb. 06, 2013 Rise Set
Actual Time 7:13 AM CST 6:18 PM CST
Civil Twilight 6:49 AM CST 6:42 PM CST
Nautical Twilight 6:22 AM CST 7:10 PM CST
Astronomical Twilight 5:54 AM CST 7:37 PM CST
Moon 3:47 AM CST (2/6) 2:49 PM CST (2/6)
Length of Visible Light 11h 53m
Length of Day
11h 05m
Waning Crescent, 17% of the Moon is Illuminated
Feb 6
Waning Crescent
Feb 10
New
Feb 17
First Quarter
Feb 25
Full
Mar 4
Last Quarter

Hourly Weather History & Observations

Time (CST) Temp. Heat Index Dew Point Humidity Pressure Visibility Wind Dir Wind Speed Gust Speed Precip Events Conditions
12:15 AM 72.5 °F - 67.3 °F 84% 29.91 in 10.0 mi SSE 13.8 mph 17.3 mph N/A   Overcast
12:35 AM 72.5 °F - 67.5 °F 84% 29.91 in 10.0 mi SSE 10.4 mph - N/A   Overcast
1:15 AM 72.7 °F - 67.5 °F 84% 29.93 in 10.0 mi ESE 5.8 mph - N/A   Overcast
1:35 AM 72.9 °F - 67.3 °F 83% 29.92 in 10.0 mi ESE 9.2 mph - N/A   Overcast
1:55 AM 72.9 °F - 67.5 °F 83% 29.92 in 10.0 mi SE 8.1 mph - N/A   Overcast
2:15 AM 72.7 °F - 67.3 °F 83% 29.91 in 10.0 mi ESE 8.1 mph - N/A   Overcast
2:35 AM 72.5 °F - 67.3 °F 84% 29.90 in 10.0 mi SE 8.1 mph - N/A   Overcast
2:55 AM 72.1 °F - 67.3 °F 85% 29.90 in 10.0 mi ESE 6.9 mph - N/A   Overcast
3:15 AM 72.1 °F - 67.3 °F 85% 29.90 in 10.0 mi SE 5.8 mph - N/A   Overcast
3:35 AM 72.1 °F - 67.3 °F 85% 29.89 in 10.0 mi SE 8.1 mph - N/A   Overcast
3:55 AM 72.0 °F - 67.3 °F 85% 29.89 in 10.0 mi SE 5.8 mph - N/A   Overcast
4:15 AM 72.1 °F - 67.3 °F 85% 29.90 in 10.0 mi SE 6.9 mph - N/A   Overcast
4:35 AM 72.0 °F - 67.1 °F 85% 29.90 in 10.0 mi SE 6.9 mph - N/A   Overcast
4:55 AM 72.1 °F - 67.3 °F 85% 29.90 in 10.0 mi SE 9.2 mph - N/A   Overcast
5:15 AM 72.1 °F - 67.3 °F 85% 29.90 in 10.0 mi ESE 5.8 mph - N/A   Overcast
5:35 AM 72.0 °F - 67.1 °F 85% 29.90 in 10.0 mi ESE 5.8 mph - N/A   Overcast
6:15 AM 71.6 °F - 67.1 °F 86% 29.89 in 10.0 mi ESE 6.9 mph - N/A   Overcast
6:35 AM 71.6 °F - 67.1 °F 86% 29.90 in 10.0 mi ESE 5.8 mph - N/A   Overcast
6:55 AM 71.6 °F - 67.1 °F 86% 29.90 in 10.0 mi ESE 5.8 mph - N/A   Overcast
7:35 AM 71.8 °F - 67.3 °F 86% 29.91 in 10.0 mi ESE 4.6 mph - N/A   Overcast
7:55 AM 72.0 °F - 67.3 °F 85% 29.91 in 7.0 mi ESE 3.5 mph - N/A   Overcast
8:15 AM 72.1 °F - 68.0 °F 87% 29.91 in 7.0 mi ESE 4.6 mph - N/A   Light Drizzle
9:15 AM 75.0 °F - 68.5 °F 80% 29.92 in 7.0 mi SE 5.8 mph - N/A   Overcast
9:35 AM 77.0 °F - 68.2 °F 74% 29.91 in 10.0 mi SSE 10.4 mph - N/A   Overcast
9:55 AM 76.6 °F - 67.6 °F 74% 29.92 in 10.0 mi SSE 11.5 mph - N/A   Overcast
10:15 AM 77.4 °F - 67.1 °F 71% 29.92 in 7.0 mi South 11.5 mph 16.1 mph N/A   Overcast
10:35 AM 78.6 °F - 67.3 °F 68% 29.92 in 10.0 mi South 9.2 mph - N/A   Overcast
10:55 AM 79.9 °F - 66.6 °F 64% 29.91 in 10.0 mi South 12.7 mph - N/A   Overcast
11:15 AM 80.6 °F 82.7 °F 65.8 °F 61% 29.89 in 7.0 mi South 16.1 mph 20.7 mph N/A   Overcast
11:35 AM 82.8 °F 85.1 °F 66.4 °F 58% 29.89 in 7.0 mi South 16.1 mph 20.7 mph N/A   Mostly Cloudy
12:15 PM 84.0 °F 86.0 °F 65.5 °F 54% 29.87 in 10.0 mi South 15.0 mph - N/A   Scattered Clouds
12:35 PM 84.2 °F 86.1 °F 65.1 °F 53% 29.85 in 10.0 mi South 15.0 mph 18.4 mph N/A   Scattered Clouds
12:55 PM 84.4 °F 85.9 °F 64.2 °F 51% 29.84 in 10.0 mi South 15.0 mph 20.7 mph N/A   Scattered Clouds
1:15 PM 84.2 °F 85.6 °F 64.4 °F 51% 29.83 in 10.0 mi South 11.5 mph 19.6 mph N/A   Scattered Clouds
1:35 PM 84.9 °F 86.3 °F 64.2 °F 50% 29.81 in 7.0 mi South 13.8 mph 19.6 mph N/A   Mostly Cloudy
1:55 PM 84.4 °F 86.1 °F 64.9 °F 52% 29.80 in 10.0 mi South 12.7 mph 21.9 mph N/A   Mostly Cloudy
2:15 PM 86.0 °F 87.3 °F 64.2 °F 48% 29.79 in 7.0 mi South 13.8 mph 20.7 mph N/A   Mostly Cloudy
2:35 PM 86.0 °F 86.8 °F 63.1 °F 46% 29.79 in 10.0 mi South 12.7 mph 19.6 mph N/A   Scattered Clouds
2:55 PM 85.5 °F 86.6 °F 63.7 °F 48% 29.77 in 7.0 mi South 8.1 mph 16.1 mph N/A   Mostly Cloudy
3:15 PM 86.7 °F 87.5 °F 63.3 °F 45% 29.76 in 7.0 mi South 10.4 mph - N/A   Scattered Clouds
3:35 PM 87.3 °F 88.0 °F 63.0 °F 44% 29.76 in 7.0 mi South 10.4 mph 20.7 mph N/A   Scattered Clouds
3:55 PM 86.7 °F 87.8 °F 63.7 °F 46% 29.75 in 7.0 mi SSE 8.1 mph - N/A   Scattered Clouds
4:15 PM 85.3 °F 86.6 °F 63.9 °F 49% 29.75 in 7.0 mi SSE 9.2 mph 17.3 mph N/A   Scattered Clouds
4:35 PM 85.5 °F 86.8 °F 64.0 °F 49% 29.75 in 10.0 mi South 9.2 mph - N/A   Scattered Clouds
4:55 PM 85.1 °F 86.6 °F 64.4 °F 50% 29.75 in 10.0 mi South 10.4 mph - N/A   Clear
5:15 PM 83.7 °F 85.1 °F 64.4 °F 52% 29.76 in 10.0 mi South 6.9 mph - N/A   Clear
5:35 PM 83.7 °F 85.1 °F 64.4 °F 52% 29.77 in 7.0 mi SE 6.9 mph - N/A   Clear
5:55 PM 82.2 °F 83.8 °F 64.6 °F 55% 29.77 in 10.0 mi SSE 8.1 mph - N/A   Clear
6:15 PM 80.8 °F 82.5 °F 64.8 °F 58% 29.78 in 10.0 mi SE 5.8 mph - N/A   Clear
6:55 PM 76.3 °F - 63.5 °F 64% 29.80 in 10.0 mi North 10.4 mph 16.1 mph N/A   Scattered Clouds
7:15 PM 73.6 °F - 63.0 °F 69% 29.81 in 10.0 mi NNE 11.5 mph 19.6 mph N/A   Mostly Cloudy
7:35 PM 71.4 °F - 62.6 °F 74% 29.82 in 10.0 mi NNE 11.5 mph - N/A   Mostly Cloudy
7:55 PM 70.0 °F - 62.6 °F 77% 29.83 in 10.0 mi NNE 10.4 mph - N/A   Scattered Clouds
8:15 PM 69.1 °F - 62.2 °F 79% 29.85 in 10.0 mi NNE 6.9 mph - N/A   Scattered Clouds
8:35 PM 68.7 °F - 62.4 °F 80% 29.86 in 10.0 mi NNE 8.1 mph - N/A   Clear
8:55 PM 68.4 °F - 62.2 °F 81% 29.86 in 10.0 mi NNE 5.8 mph - N/A   Clear
9:15 PM 68.0 °F - 62.1 °F 81% 29.86 in 10.0 mi NE 5.8 mph - N/A   Clear
9:35 PM 67.5 °F - 61.9 °F 82% 29.87 in 10.0 mi NE 4.6 mph - N/A   Clear
9:55 PM 67.3 °F - 61.9 °F 83% 29.87 in 10.0 mi Calm Calm - N/A   Clear
10:15 PM 66.7 °F - 61.9 °F 84% 29.87 in 10.0 mi Calm Calm - N/A   Clear
10:35 PM 66.6 °F - 61.9 °F 85% 29.87 in 10.0 mi Calm Calm - N/A   Clear
10:55 PM 66.7 °F - 61.9 °F 84% 29.87 in 10.0 mi Calm Calm - N/A   Scattered Clouds
11:15 PM 66.2 °F - 61.9 °F 86% 29.87 in 10.0 mi Calm Calm - N/A   Mostly Cloudy
11:35 PM 66.6 °F - 62.2 °F 86% 29.88 in 10.0 mi Calm Calm - N/A   Overcast
11:55 PM 67.1 °F - 62.6 °F 85% 29.88 in 10.0 mi Calm Calm - N/A   Overcast